London, United Kingdom

2:18 AM BST on July 26, 2016 (GMT +0100)
Heathrow

Weather History for EGLL - April, 2014

Change the Weather History Date:

Thursday, April 3, 2014

  Actual Average Record
Temperature  
Mean Temperature 58 °F -  
Max Temperature 64 °F 57 °F 69 °F (2002)
Min Temperature 51 °F 42 °F 31 °F (2013)
Degree Days  
Heating Degree Days 8    
Growing Degree Days 8 (Base 50)    
Moisture  
Dew Point 49 °F    
Average Humidity 75    
Maximum Humidity 88    
Minimum Humidity 52    
Precipitation  
Precipitation 0.00 in - - ()
Sea Level Pressure  
Sea Level Pressure 29.53 in    
Wind  
Wind Speed 7 mph ()    
Max Wind Speed 16 mph    
Max Gust Speed -    
Visibility 4.4 miles    
Events      
Averages and records for this station are not official NWS values.
T = Trace of Precipitation, MM = Missing Value Source: Averaged Metar Reports

Daily Weather History Graph

Daily Weather History Graph

Search for Another Location

Airport or City:

Trip Planner

Search our weather history database for the weather conditions in past years. The results will help you decide how hot, cold, wet, or windy it might be!

Date:

Astronomy

Apr. 03, 2014 Rise Set
Actual Time 6:33 AM BST 7:38 PM BST
Civil Twilight 5:59 AM BST 8:12 PM BST
Nautical Twilight 5:17 AM BST 8:53 PM BST
Astronomical Twilight 4:33 AM BST 9:38 PM BST
Moon 8:28 AM BST (4/3) No Moon Set
Length of Visible Light 14h 13m
Length of Day
13h 05m
Waxing Crescent, 15% of the Moon is Illuminated
Apr 3
Waxing Crescent
Apr 7
First Quarter
Apr 15
Full
Apr 22
Last Quarter
Apr 29
New

Hourly Weather History & Observations

Time (BST) Temp. Dew Point Humidity Pressure Visibility Wind Dir Wind Speed Gust Speed Precip Events Conditions
12:00 AM 55 °F 49 °F 73% 29.57 in 3 mi East 8.1 mph - -   Light Haze
12:20 AM 55.4 °F 50.0 °F 82% 29.56 in - East 6.9 mph - N/A   Haze
12:50 AM 55.4 °F 50.0 °F 82% 29.56 in 2.8 mi East 4.6 mph - N/A   Haze
1:00 AM 54 °F 49 °F 77% 29.57 in 3 mi East 5.8 mph - -   Light Haze
1:20 AM 53.6 °F 48.2 °F 82% 29.56 in - ENE 4.6 mph - N/A   Haze
1:50 AM 53.6 °F 48.2 °F 82% 29.56 in - ENE 5.8 mph - N/A   Haze
2:00 AM 54 °F 48 °F 75% 29.56 in 3 mi ENE 3.5 mph - -   Light Haze
2:20 AM 53.6 °F 50.0 °F 88% 29.56 in - ENE 4.6 mph - N/A   Haze
2:50 AM 53.6 °F 50.0 °F 88% 29.53 in 2.8 mi NE 5.8 mph - N/A   Haze
3:00 AM 54 °F 48 °F 75% 29.54 in 2 mi NE 4.6 mph - -   Light Haze
3:20 AM 55.4 °F 48.2 °F 77% 29.53 in - NE 5.8 mph - N/A   Haze
3:50 AM 53.6 °F 48.2 °F 82% 29.53 in - NE 4.6 mph - N/A   Haze
4:00 AM 54 °F 48 °F 74%  in 2 mi NE 4.6 mph - -   Light Haze
4:20 AM 53.6 °F 48.2 °F 82% 29.53 in 2.5 mi ENE 5.8 mph - N/A   Haze
4:50 AM 53.6 °F 48.2 °F 82% 29.50 in - NE 4.6 mph - N/A   Haze
5:00 AM 53 °F 48 °F 78% 29.52 in 2 mi NE 3.5 mph - -   Light Haze
5:20 AM 53.6 °F 48.2 °F 82% 29.50 in 2.5 mi Variable 2.3 mph - N/A   Haze
5:50 AM 51.8 °F 48.2 °F 88% 29.50 in - NNE 4.6 mph - N/A   Haze
6:00 AM 53 °F 48 °F 77% 29.52 in 2 mi NNE 5.8 mph - -   Light Haze
6:20 AM 51.8 °F 48.2 °F 88% 29.50 in - NNE 4.6 mph - N/A   Haze
6:50 AM 51.8 °F 48.2 °F 88% 29.50 in - ENE 5.8 mph - N/A   Haze
7:00 AM 53 °F 48 °F 78% 29.52 in 2 mi NE 5.8 mph - -   Light Haze
7:20 AM 51.8 °F 48.2 °F 88% 29.53 in 1.9 mi ENE 5.8 mph - N/A   Haze
7:50 AM 51.8 °F 48.2 °F 88% 29.53 in - Variable 3.5 mph - N/A   Haze
8:00 AM 53 °F 48 °F 78% 29.54 in 2 mi ENE 3.5 mph - -   Light Haze
8:20 AM 53.6 °F 50.0 °F 88% 29.53 in - NE 5.8 mph - N/A   Haze
8:50 AM 53.6 °F 50.0 °F 88% 29.50 in - NE 4.6 mph - N/A   Haze
9:00 AM 54 °F 49 °F 77% 29.52 in 2 mi NNE 5.8 mph - -   Light Haze
9:20 AM 53.6 °F 50.0 °F 88% 29.50 in - NE 6.9 mph - N/A   Haze
9:50 AM 55.4 °F 50.0 °F 82% 29.50 in 2.2 mi NNE 5.8 mph - N/A   Haze
10:00 AM 55 °F 49 °F 75% 29.52 in 2 mi NNE 8.1 mph - -   Light Haze
10:20 AM 57.2 °F 50.0 °F 77% 29.50 in 2.2 mi NE 8.1 mph - N/A   Haze
10:50 AM 57.2 °F 50.0 °F 77% 29.50 in - ENE 8.1 mph - N/A   Haze
11:00 AM 57 °F 49 °F 68% 29.51 in 3 mi NE 10.4 mph - -   Light Haze
11:20 AM 57.2 °F 50.0 °F 77% 29.50 in - ENE 9.2 mph - N/A   Haze
11:50 AM 59.0 °F 50.0 °F 72% 29.50 in - ENE 8.1 mph - N/A   Haze
12:00 PM 58 °F 50 °F 66% 29.52 in 3 mi ENE 8.1 mph - -   Light Haze
12:20 PM 60.8 °F 51.8 °F 72% 29.50 in 3.1 mi ENE 9.2 mph - N/A   Haze
12:50 PM 62.6 °F 51.8 °F 68% 29.50 in 3.7 mi ENE 8.1 mph - N/A   Unknown
1:00 PM 62 °F 49 °F 54% 29.51 in 4 mi NE 8.1 mph - -   Light Haze
1:20 PM 62.6 °F 50.0 °F 63% 29.50 in 4.3 mi East 9.2 mph - N/A   Unknown
1:50 PM 62.6 °F 51.8 °F 68% 29.50 in 5.0 mi ESE 10.4 mph - N/A   Unknown
2:00 PM 63 °F 51 °F 56% 29.52 in 7 mi East 10.4 mph - -   Scattered Clouds
2:20 PM 64.4 °F 51.8 °F 64% 29.50 in 6.2 mi East 9.2 mph - N/A   Scattered Clouds
2:50 PM 64.4 °F 50.0 °F 59% 29.50 in 6.2 mi ESE 8.1 mph - N/A   Scattered Clouds
3:00 PM 64 °F 51 °F 54% 29.50 in 8 mi East 8.1 mph - -   Partly Cloudy
3:20 PM 64.4 °F 50.0 °F 59% 29.50 in 6.2 mi SE 11.5 mph - N/A   Partly Cloudy
3:50 PM 64.4 °F 50.0 °F 59% 29.50 in 6.2 mi SSE 13.8 mph - N/A   Partly Cloudy
4:00 PM 64 °F 51 °F 52% 29.51 in 12 mi SE 16.1 mph - -   Partly Cloudy
4:20 PM 62.6 °F 50.0 °F 63% 29.50 in 6.2 mi SSE 11.5 mph - N/A   Mostly Cloudy
4:50 PM 62.6 °F 50.0 °F 63% 29.50 in 6.2 mi SE 10.4 mph - N/A   Mostly Cloudy
5:00 PM 62 °F 50 °F 54% 29.51 in 13 mi SE 12.7 mph - -   Scattered Clouds
5:20 PM 60.8 °F 51.8 °F 72% 29.50 in 6.2 mi SSE 10.4 mph - N/A   Mostly Cloudy
5:50 PM 60.8 °F 50.0 °F 68% 29.53 in 6.2 mi SSE 9.2 mph - N/A   Scattered Clouds
6:00 PM 60 °F 50 °F 60% 29.53 in 12 mi SE 10.4 mph - -   Scattered Clouds
6:20 PM 59.0 °F 50.0 °F 72% 29.53 in 6.2 mi ESE 11.5 mph - N/A   Mostly Cloudy
6:50 PM 59.0 °F 50.0 °F 72% 29.53 in 6.2 mi SE 8.1 mph - N/A   Mostly Cloudy
7:00 PM 59 °F 49 °F 60% 29.54 in 7 mi SE 10.4 mph - -   Mostly Cloudy
7:20 PM 59.0 °F 50.0 °F 72% 29.53 in 6.2 mi ESE 10.4 mph - N/A   Mostly Cloudy
7:50 PM 57.2 °F 50.0 °F 77% 29.53 in 5.0 mi ESE 9.2 mph - N/A   Mostly Cloudy
8:00 PM 57 °F 48 °F 65% 29.55 in 5 mi ESE 12.7 mph - -   Light Haze
8:20 PM 55.4 °F 48.2 °F 77% 29.56 in 4.3 mi SE 10.4 mph - N/A   Mostly Cloudy
8:50 PM 53.6 °F 48.2 °F 82% 29.56 in 3.7 mi SSE 8.1 mph - N/A   Scattered Clouds
9:00 PM 54 °F 48 °F 72% 29.57 in 3 mi SE 11.5 mph - -   Light Haze
9:20 PM 53.6 °F 48.2 °F 82% 29.56 in 3.1 mi South 10.4 mph - N/A   Haze
9:50 PM 53.6 °F 48.2 °F 82% 29.56 in 2.8 mi South 9.2 mph - N/A   Haze
10:00 PM 53 °F 48 °F 76% 29.59 in 3 mi South 9.2 mph - -   Light Haze
10:20 PM 53.6 °F 48.2 °F 82% 29.59 in 2.8 mi South 8.1 mph - N/A   Haze
10:50 PM 53.6 °F 48.2 °F 82% 29.59 in - SSW 6.9 mph - N/A   Haze
11:00 PM 53 °F 48 °F 78% 29.59 in 3 mi South 6.9 mph - -   Light Haze
11:20 PM 53.6 °F 48.2 °F 82% 29.59 in - SSW 6.9 mph - N/A   Haze
11:50 PM 53.6 °F 48.2 °F 82% 29.59 in - South 5.8 mph - N/A   Haze